Weather reports worldwide

Advertisment
Cap Cepet, France (7661): temperature & dewpoint: 14.06.2018 11:00:00 - 20.06.2018 11:00:00 (CEST)Cap Cepet, France (7661): wind speed & gusts: 14.06.2018 11:00:00 - 20.06.2018 11:00:00 (CEST)Cap Cepet, France (7661): wind direction: 14.06.2018 11:00:00 - 20.06.2018 11:00:00 (CEST)Cap Cepet, France (7661): reduced air pressure: 14.06.2018 11:00:00 - 20.06.2018 11:00:00 (CEST)Cap Cepet, France (7661): visibility: 14.06.2018 11:00:00 - 20.06.2018 11:00:00 (CEST)Cap Cepet, France (7661): precipitation: 14.06.2018 11:00:00 - 20.06.2018 11:00:00 (CEST)
Date & Time tt [°C] td [°C] ff [km/h] ff [kn] fx [km/h] fx [kn] dd ppp [hPa] vv [km] rr [mm]
20.06.2018 11:00:00 27,1 18,1 11 6 21 11 ESE 1019,2 20 0,0
20.06.2018 10:00:00 27,8 17,6 13 7 29 16 ENE 1019,1 - 0,0
20.06.2018 09:00:00 25,6 17,5 20 11 28 15 ENE 1019,0 - 0,0
20.06.2018 08:00:00 22,2 17,3 18 10 27 15 ENE 1019,0 - 0,0
20.06.2018 07:00:00 21,0 16,8 14 7 25 14 ENE 1018,6 - 0,0
20.06.2018 06:00:00 21,5 16,2 21 11 27 14 NE 1018,1 - 0,0
20.06.2018 05:00:00 22,2 16,0 4 2 10 5 NNE 1018,0 20 0,0
20.06.2018 04:00:00 21,8 16,3 3 1 7 4 NNE 1017,9 - 0,0
20.06.2018 03:00:00 23,0 15,8 5 3 10 5 ESE 1018,1 - 0,0
20.06.2018 02:00:00 21,2 16,8 11 6 18 10 WNW 1018,4 - 0,0
20.06.2018 01:00:00 21,6 16,5 14 8 22 12 W 1018,5 - 0,0
20.06.2018 00:00:00 22,3 16,6 16 9 24 13 W 1018,5 - 0,0
19.06.2018 23:00:00 23,2 15,5 12 7 17 9 W 1018,4 - 0,0
19.06.2018 22:00:00 24,0 14,7 8 5 18 10 W 1018,1 - 0,0
19.06.2018 21:00:00 24,9 17,6 10 6 16 9 W 1017,7 - 0,0
19.06.2018 20:00:00 25,6 16,2 9 5 14 7 SSW 1017,8 17 0,0
19.06.2018 19:00:00 27,5 15,2 7 4 14 7 SSW 1018,0 - 0,0
19.06.2018 18:00:00 26,0 18,4 5 3 12 6 S 1018,4 - 0,0
19.06.2018 17:00:00 28,4 16,3 4 2 10 5 SSW 1018,5 - 0,0
19.06.2018 16:00:00 27,9 18,9 4 2 16 9 S 1018,8 - 0,0
19.06.2018 15:00:00 26,8 20,6 9 5 23 12 SSE 1018,9 - 0,0
19.06.2018 14:00:00 27,0 19,9 8 5 19 11 S 1018,8 17 0,0
19.06.2018 13:00:00 28,0 18,1 9 5 24 13 S 1019,0 - 0,0
19.06.2018 12:00:00 28,5 16,4 11 6 19 10 SSE 1018,9 - 0,0
19.06.2018 11:00:00 28,2 17,1 7 4 17 9 SSE 1018,8 20 0,0
19.06.2018 10:00:00 28,1 17,0 10 6 20 11 NE 1018,8 - 0,0
19.06.2018 09:00:00 25,8 16,6 12 7 26 14 ENE 1018,5 - 0,0
19.06.2018 08:00:00 23,0 16,1 15 8 25 14 NE 1018,0 - 0,0
19.06.2018 07:00:00 20,4 16,0 14 8 27 15 ENE 1017,8 - 0,0
19.06.2018 06:00:00 20,6 14,9 20 11 23 13 ENE 1017,2 - 0,0
19.06.2018 05:00:00 21,3 14,9 20 11 30 16 NE 1016,9 - 0,0
19.06.2018 04:00:00 21,3 14,9 18 10 24 13 NE 1016,9 - 0,0
19.06.2018 03:00:00 22,3 14,9 14 8 17 9 ENE 1016,6 - 0,0
19.06.2018 02:00:00 22,1 15,7 3 2 11 6 ENE 1016,7 - 0,0
19.06.2018 01:00:00 23,4 15,2 6 3 11 6 NE 1016,7 - 0,0
19.06.2018 00:00:00 23,2 14,7 3 2 9 5 N 1016,9 - 0,0
18.06.2018 23:00:00 23,0 15,1 8 4 22 12 WNW 1016,8 - 0,0
18.06.2018 22:00:00 23,4 14,7 15 8 22 12 W 1016,4 - 0,0
18.06.2018 21:00:00 25,7 15,1 8 4 15 8 W 1016,1 - 0,0
18.06.2018 20:00:00 27,4 14,1 7 4 24 13 WSW 1016,1 20 0,0
18.06.2018 19:00:00 27,9 13,8 14 8 23 12 W 1015,9 - 0,0
18.06.2018 18:00:00 28,0 14,6 12 6 20 11 W 1016,1 - 0,0
18.06.2018 17:00:00 29,7 14,3 4 2 11 6 SSW 1016,2 - 0,0
18.06.2018 16:00:00 29,8 14,4 5 3 11 6 W 1016,1 - 0,0
18.06.2018 15:00:00 28,2 14,8 4 2 17 9 S 1016,3 - 0,0
18.06.2018 14:00:00 27,9 14,5 10 5 21 11 S 1016,3 - 0,0
18.06.2018 13:00:00 27,5 15,2 13 7 19 11 SSW 1016,3 - 0,0
18.06.2018 12:00:00 26,3 14,4 10 5 17 9 SSW 1015,9 - 0,0
18.06.2018 11:00:00 25,1 14,2 9 5 18 10 ENE 1015,9 20 0,0
18.06.2018 10:00:00 25,4 14,2 4 2 11 6 NE 1015,6 - 0,0
18.06.2018 09:00:00 22,9 14,7 3 2 6 3 SSW 1015,2 - 0,0
18.06.2018 08:00:00 22,1 13,4 3 1 11 6 ENE 1014,9 - 0,0
18.06.2018 07:00:00 20,4 12,1 2 1 16 8 SE 1014,7 - 0,0
18.06.2018 06:00:00 18,9 12,9 12 6 18 10 W 1014,2 - 0,0
18.06.2018 05:00:00 19,7 13,2 6 3 14 8 S 1013,7 - 0,0
18.06.2018 04:00:00 19,3 13,2 11 6 39 21 WNW 1013,6 - 0,0
18.06.2018 03:00:00 19,7 13,2 26 14 36 19 W 1013,4 - 0,0
18.06.2018 02:00:00 20,2 13,4 20 11 34 19 W 1013,7 - 0,0
18.06.2018 01:00:00 20,5 13,5 21 11 29 16 W 1014,2 - 0,0
18.06.2018 00:00:00 21,6 13,2 16 8 38 21 W 1014,3 - 0,0
17.06.2018 23:00:00 22,2 13,3 26 14 37 20 W 1014,1 - 0,0
17.06.2018 22:00:00 23,0 13,5 26 14 41 22 W 1013,8 - 0,0
17.06.2018 21:00:00 24,4 14,2 22 12 40 22 W 1013,5 - 0,0
17.06.2018 20:00:00 25,2 14,6 28 15 40 22 W 1013,2 25 0,0
17.06.2018 19:00:00 25,4 15,4 26 14 50 27 W 1013,2 - 0,0
17.06.2018 18:00:00 27,1 15,8 36 19 65 35 W 1013,0 - 0,0
17.06.2018 17:00:00 28,0 15,3 35 19 54 29 W 1013,1 25 0,0
17.06.2018 16:00:00 28,6 15,5 27 15 46 25 W 1013,7 - 0,0
17.06.2018 15:00:00 28,5 15,4 20 11 39 21 W 1013,9 - 0,0
17.06.2018 14:00:00 28,4 16,0 21 11 36 19 W 1014,0 - 0,0
17.06.2018 13:00:00 28,3 16,6 16 9 27 15 W 1014,0 - 0,0
17.06.2018 12:00:00 27,3 16,9 10 5 20 11 W 1014,1 - 0,0
17.06.2018 11:00:00 25,8 15,8 9 5 17 9 WNW 1014,0 25 0,0
17.06.2018 10:00:00 24,3 16,3 5 3 12 7 WNW 1014,0 - 0,0
17.06.2018 09:00:00 22,1 14,7 11 6 17 9 W 1013,9 - 0,0
17.06.2018 08:00:00 20,6 15,6 8 5 14 8 SE 1013,5 - 0,0
17.06.2018 07:00:00 19,6 14,4 5 3 13 7 W 1013,4 - 0,0
17.06.2018 06:00:00 18,3 14,6 8 5 24 13 NW 1012,9 - 0,0
17.06.2018 05:00:00 19,1 14,8 11 6 29 15 WNW 1012,6 20 0,0
17.06.2018 04:00:00 19,6 14,4 18 10 26 14 W 1012,3 - 0,0
17.06.2018 03:00:00 19,8 15,2 19 11 30 16 W 1012,3 - 0,0
17.06.2018 02:00:00 20,8 15,1 21 12 31 17 W 1012,6 - 0,0
17.06.2018 01:00:00 20,2 16,8 17 9 23 13 W 1012,9 - 0,0
17.06.2018 00:00:00 20,5 16,9 14 8 19 10 W 1013,0 - 0,0
16.06.2018 23:00:00 21,0 16,8 10 5 13 7 W 1013,0 - 0,0
16.06.2018 22:00:00 20,9 16,7 5 3 16 9 WSW 1012,7 - 0,0
16.06.2018 21:00:00 21,2 18,8 10 6 15 8 W 1012,5 - 0,0
16.06.2018 20:00:00 22,7 18,2 13 7 16 9 SSW 1012,1 20 0,0
16.06.2018 19:00:00 24,2 19,3 7 4 13 7 SSW 1012,2 - 0,0
16.06.2018 18:00:00 24,8 20,1 8 4 12 6 SSW 1012,1 - 0,0
16.06.2018 17:00:00 23,1 20,4 3 2 10 6 S 1012,2 - 0,0
16.06.2018 16:00:00 23,4 20,5 6 3 23 12 SSW 1012,8 - 0,0
16.06.2018 15:00:00 24,6 20,5 15 8 25 13 SSE 1012,6 - 0,0
16.06.2018 14:00:00 25,1 18,8 13 7 32 17 SE 1012,7 - 0,0
16.06.2018 13:00:00 25,1 17,8 12 6 31 17 E 1012,5 - 0,0
16.06.2018 12:00:00 24,7 19,1 17 9 32 18 E 1012,3 - 0,0
16.06.2018 11:00:00 23,3 18,6 10 6 22 12 SE 1012,3 20 0,0
16.06.2018 10:00:00 23,0 17,2 9 5 18 10 ESE 1012,2 - 0,0
16.06.2018 09:00:00 22,8 16,1 9 5 21 11 ENE 1012,1 - 0,0
16.06.2018 08:00:00 20,0 15,4 12 7 21 11 NE 1011,8 - 0,0
16.06.2018 07:00:00 17,7 14,2 12 7 20 11 E 1011,7 - 0,0
16.06.2018 06:00:00 18,1 13,8 12 7 20 11 E 1011,4 - 0,0
16.06.2018 05:00:00 18,2 13,7 16 8 19 10 ENE 1011,3 - 0,0
16.06.2018 04:00:00 18,8 15,7 4 2 8 5 NNE 1011,3 - 0,0
16.06.2018 03:00:00 18,8 15,8 5 3 13 7 NNW 1011,4 - 0,0
16.06.2018 02:00:00 18,8 15,1 11 6 19 10 W 1011,4 - 0,0
16.06.2018 01:00:00 19,9 15,1 9 5 12 7 WNW 1011,5 - 0,0
16.06.2018 00:00:00 20,9 14,3 7 4 16 8 WNW 1011,3 - 0,0
15.06.2018 23:00:00 21,1 14,3 11 6 20 11 W 1011,2 - 0,0
15.06.2018 22:00:00 20,2 15,0 17 9 29 16 W 1011,1 - 0,0
15.06.2018 21:00:00 21,0 15,5 21 11 36 20 W 1010,8 - 0,0
15.06.2018 20:00:00 23,6 14,6 24 13 37 20 W 1010,6 20 0,0
15.06.2018 19:00:00 26,6 14,0 17 9 29 16 W 1010,6 - 0,0
15.06.2018 18:00:00 28,1 10,8 15 8 32 18 W 1010,5 - 0,0
15.06.2018 17:00:00 27,3 12,5 18 10 36 19 W 1010,8 - 0,0
15.06.2018 16:00:00 25,4 14,2 22 12 34 18 W 1011,1 - 0,0
15.06.2018 15:00:00 27,0 14,4 10 5 27 15 WSW 1011,1 - 0,0
15.06.2018 14:00:00 25,0 14,5 13 7 23 13 SSW 1011,3 20 0,0
15.06.2018 13:00:00 25,5 14,0 13 7 21 12 SSW 1011,3 - 0,0
15.06.2018 12:00:00 24,8 14,3 9 5 17 9 S 1011,3 - 0,0
15.06.2018 11:00:00 24,0 14,7 4 2 13 7 SSE 1011,0 - 0,0
15.06.2018 10:00:00 23,0 15,6 3 2 14 8 NE 1010,9 - 0,0
15.06.2018 09:00:00 21,9 16,0 4 2 23 12 S 1010,7 - 0,0
15.06.2018 08:00:00 20,6 13,1 16 9 23 12 ENE 1009,8 35 0,0
15.06.2018 07:00:00 18,5 14,4 6 3 10 5 NE 1009,7 - 0,0
15.06.2018 06:00:00 17,6 15,6 3 2 16 9 NNW 1009,8 - 0,0
15.06.2018 05:00:00 18,8 14,1 3 2 6 3 E 1009,1 - 0,0
15.06.2018 04:00:00 19,0 15,1 4 2 11 6 SSE 1008,9 - 0,0
15.06.2018 03:00:00 19,2 14,5 4 2 14 8 S 1009,0 - 0,0
15.06.2018 02:00:00 18,7 15,4 12 7 15 8 SSW 1009,1 - 0,0
15.06.2018 01:00:00 20,6 13,1 4 2 11 6 NNW 1009,0 - 0,0
15.06.2018 00:00:00 19,5 14,1 9 5 24 13 ENE 1009,5 - 0,0
14.06.2018 23:00:00 20,0 14,8 15 8 20 11 NE 1009,5 - 0,0
14.06.2018 22:00:00 21,4 13,6 9 5 12 7 NE 1009,1 - 0,0
14.06.2018 21:00:00 22,2 12,2 6 3 15 8 W 1008,5 - 0,0
14.06.2018 20:00:00 24,3 12,9 6 3 20 11 WSW 1008,5 - 0,0
14.06.2018 19:00:00 26,9 12,2 8 5 23 12 W 1008,5 - 0,0
14.06.2018 18:00:00 27,9 13,0 13 7 28 15 W 1008,6 - 0,0
14.06.2018 17:00:00 28,0 13,5 12 7 26 14 W 1008,6 30 0,0
14.06.2018 16:00:00 28,2 13,3 12 7 24 13 WSW 1008,7 - 0,0
14.06.2018 15:00:00 27,0 12,2 10 5 18 10 SSW 1009,0 - 0,0
14.06.2018 14:00:00 26,1 13,6 7 4 16 9 SSW 1009,2 25 0,0
14.06.2018 13:00:00 25,8 14,3 3 2 11 6 S 1009,2 - 0,0
14.06.2018 12:00:00 24,8 14,9 2 1 10 5 SSW 1008,8 - 0,0
14.06.2018 11:00:00 24,9 15,5 3 2 10 6 WNW 1008,3 25 0,0

tt = temperature
td = dewpoint
ff = wind speed
fx = gusts
dd = wind direction
ppp = reduced air pressure
vv = visibility
rr = precipitation

Next stations